Location: Observatoire
(46.1952°N, 5.3391°E)
Time: 20:22:20
(UTC+01:00)

Injun/Solrad 3 - Pass Details

Date: 25 February 2026
Orbit: 871 x 985 km, 66.8° (Epoch: 11 March)

Event Time Altitude Azimuth Distance (km) Brightness Sun altitude
Rises 20:32:59 0° 314° (NW) 3,601 11.9 -23.8°
Reaches altitude 10° 20:36:17 10° 297° (WNW) 2,673 11.3 -24.4°
Maximum altitude 20:40:21 18° 256° (WSW) 2,147 10.5 -25.1°
Drops below altitude 10° 20:44:27 10° 215° (SW) 2,705 10.5 -25.7°
Sets 20:47:51 0° 197° (SSW) 3,660 11.0 -26.3°
